COSMOS 2251 DEB, 37546

Orbit data source: Space-Track

COSMOS 2251 DEB, 37546 is space debris in LEO originally from a launch on Wed, 16 Jun 1993 UTC launched from the Plesetsk Missile And Space Complex (PKMTR). The debris from Iridium 33, an American commercial communications satellite, has been tracked extensively since its accidental collision with the defunct Russian satellite Cosmos 2251 in 2009. This event, occurring at high speed in low Earth orbit (LEO), generated thousands of pieces of space debris, significantly increasing the risk of further collisions. The Iridium 33 debris cloud has impacted space traffic management and orbital debris mitigation strategies, making it a subject of ongoing study in space situational awareness.

Loading next visibility...
Identifier
37546, 1993-036BPB
Orbit
LEO
Country
Flag of CISCIS
Related business
Manufacturer
Unknown
Mission
Spacecraft
Bus & Motor
Unknown
Mass
Unknown
Launch date (UTC)
1993-06-16 (32 years ago)
Launch vehicle
Unknown
Launch site
Plesetsk Missile And Space Complex (PKMTR)
Object type
Payload
Rocket body
Debris
Shape & HBR
Unknown shape, 0.1 m
Radar Cross Section
Small (<0.1 m²)

Expand to show TLE details & history
Last TLE update: 1 day ago

TLE from 1 day ago
0 COSMOS 2251 DEB
1 37546U 93036BPB 25296.45579323  .00015227  00000-0  20972-2 0  9997
2 37546  74.0233 197.0026 0010830 239.0533 120.9578 14.78212629651442
Epoch: 2025-10-23T10:56Z
TLE epoch observation values (Epoch: 2025-10-23T10:56:20.535Z)
Latitude
-0.00004°
Longitude
0.80223°
Altitude
641.547 km
Speed
7.535 km/s
True Right ascension
13h 08m 00s
True Declination
0° 00' 00"
Sunlit
Object was in daylight at epoch
Visualization orbit readout
Latitude
Unknown
Longitude
Unknown
Altitude
Unknown
Speed
Unknown
Apparent Right ascension
Unknown
Apparent Declination
Unknown
Sunlit
N/A
Visualization observer readout
Local Sidereal Time
15:29:01
Azimuth
Unknown
Elevation
Unknown
Doppler factor
Unknown
Orbital elements
Apogee altitude
640.143 km
Perigee altitude
624.958 km
Semi-major axis
7,010.687 km
Eccentricity
0.00108
Inclination
74.0233°
RAAN
197.0026°
Arg. of periapsis
239.0533°
True anomaly
121.06415°
Mean anomaly
120.9578°
Eccentric anomaly
121.01098°
Mean motion
3.69745 °/min
Orbital period
97.36 mins
BSTAR
0.0020972

Documentation

Showing up to 5 results
|